TimeCST,TemperatureF,Dew PointF,Humidity,Sea Level PressureIn,VisibilityMPH,Wind Direction,Wind SpeedMPH,Gust SpeedMPH,PrecipitationIn,Events,Conditions,WindDirDegrees,DateUTC
12:54 AM,37.0,28.9,73,29.89,10.0,ENE,4.6,-,N/A,,Clear,70,2013-02-18 06:54:00
1:54 AM,36.0,28.9,76,29.88,10.0,Calm,Calm,-,N/A,,Clear,0,2013-02-18 07:54:00
2:54 AM,39.9,30.0,68,29.85,10.0,South,3.5,-,N/A,,Clear,180,2013-02-18 08:54:00
3:54 AM,46.0,33.1,61,29.83,10.0,South,9.2,-,N/A,,Clear,190,2013-02-18 09:54:00
4:54 AM,46.0,34.0,63,29.81,10.0,SSW,8.1,-,N/A,,Clear,200,2013-02-18 10:54:00
5:54 AM,46.0,35.1,66,29.81,10.0,South,6.9,18.4,N/A,,Clear,190,2013-02-18 11:54:00
6:54 AM,46.9,36.0,66,29.80,10.0,SSW,5.8,-,N/A,,Mostly Cloudy,200,2013-02-18 12:54:00
7:54 AM,48.9,37.0,64,29.78,10.0,SSW,8.1,17.3,N/A,,Overcast,200,2013-02-18 13:54:00
8:54 AM,54.0,39.9,59,29.78,10.0,South,8.1,23.0,N/A,,Mostly Cloudy,180,2013-02-18 14:54:00
9:54 AM,57.0,42.1,57,29.75,10.0,SSW,19.6,33.4,N/A,,Mostly Cloudy,210,2013-02-18 15:54:00
10:54 AM,57.9,43.0,58,29.74,10.0,South,19.6,32.2,N/A,,Mostly Cloudy,190,2013-02-18 16:54:00
11:54 AM,55.9,44.1,64,29.72,10.0,South,12.7,31.1,N/A,,Overcast,190,2013-02-18 17:54:00
12:08 PM,55.4,44.6,67,29.71,10.0,SSW,19.6,28.8,N/A,,Overcast,200,2013-02-18 18:08:00
12:54 PM,55.9,44.1,64,29.69,10.0,South,20.7,32.2,N/A,,Overcast,190,2013-02-18 18:54:00
1:54 PM,55.0,44.1,67,29.65,10.0,South,12.7,24.2,0.00,Rain,Light Rain,180,2013-02-18 19:54:00
2:54 PM,55.0,44.1,67,29.60,10.0,South,12.7,24.2,0.00,,Overcast,180,2013-02-18 20:54:00
3:54 PM,52.0,46.9,83,29.58,4.0,South,12.7,20.7,0.01,Rain,Light Rain,180,2013-02-18 21:54:00
5:54 PM,51.1,46.9,86,29.56,6.0,South,12.7,19.6,0.07,Rain,Rain,180,2013-02-18 23:54:00
6:03 PM,51.8,46.4,82,29.58,5.0,WSW,18.4,24.2,0.01,Rain,Light Rain,250,2013-02-19 00:03:00
6:10 PM,51.8,48.2,88,29.59,5.0,West,17.3,-,0.03,Rain,Light Rain,260,2013-02-19 00:10:00
6:19 PM,51.8,46.4,82,29.61,6.0,West,23.0,31.1,0.04,Rain,Light Rain,280,2013-02-19 00:19:00
6:38 PM,46.4,42.8,87,29.65,10.0,WNW,23.0,31.1,0.04,,Overcast,290,2013-02-19 00:38:00
6:54 PM,43.0,37.9,82,29.68,10.0,WNW,23.0,32.2,0.04,,Overcast,300,2013-02-19 00:54:00
7:20 PM,41.0,35.6,81,29.71,10.0,NW,27.6,35.7,N/A,,Overcast,310,2013-02-19 01:20:00
7:54 PM,39.9,34.0,79,29.76,10.0,WNW,13.8,24.2,N/A,,Overcast,300,2013-02-19 01:54:00
8:54 PM,39.9,33.1,77,29.79,10.0,WNW,26.5,34.5,N/A,,Overcast,290,2013-02-19 02:54:00
9:54 PM,36.0,27.0,70,29.86,10.0,WNW,23.0,29.9,N/A,,Overcast,300,2013-02-19 03:54:00
10:54 PM,35.1,26.1,70,29.90,10.0,West,18.4,29.9,N/A,,Overcast,280,2013-02-19 04:54:00
11:20 PM,33.8,23.0,65,29.91,10.0,West,20.7,34.5,N/A,,Overcast,270,2013-02-19 05:20:00
11:54 PM,33.1,23.0,66,29.94,10.0,WNW,10.4,23.0,N/A,,Mostly Cloudy,290,2013-02-19 05:54:00